KIND Airport Diagram

We have created a template for each of the higher traffic airports in the vZID airspace. They include KCMH, KCRW, KCVG, KDAY, KIND, KLEX and KSDF. You wil find usefull information including the airport diagram, weather, and specific airport procedures.

KIND Weather

[Source: ADDS]
METAR
KIND 251854Z 22023G34KT 10SM FEW060 BKN095 26/19 A3001 RMK AO2 PK WND 25034/1848 LTG DSNT N AND NW RAE13B32E49 SLP154 P0004 T02610189 $ =
KIND 251720Z 2518/2624 24015G25KT P6SM VCTS SCT035CB BKN100 FM252100 24011G21KT P6SM SCT035 BKN100 FM260200 22007KT P6SM SCT100 FM260500 22006KT P6SM VCSH BKN100 FM261700 25008KT P6SM SCT035 BKN070
TAF
KIND 251720Z 2518/2624 24015G25KT P6SM VCTS SCT035CB BKN100 FM252100 24011G21KT P6SM SCT035 BKN100 FM260200 22007KT P6SM SCT100 FM260500 22006KT P6SM VCSH BKN100 FM261700 25008KT P6SM SCT035 BKN070 =

KIND Operations

 Calm Wind Configuration is runways 23L/R, up to and including 10kts.

Runway 23L typically departs South and East, Runway 23R typically departs North and West.

FedEx pilots should expect runway 23L or 5R.

Contraflow (noise abatement) procedures from 2200L to 0600L, landing Runway 5R, departing Runway 23R, weather permitted.

New Scenery is available at FlightSim.com and Blueprint Simulations. On initial contact, arriving aircraft should notify the the controller if their scenery has the Midfield Terminal.

FBOs: Signature is near taxiway D and Millionaire is near taxiway A, both are North of taxiway M.

 

JSN Epic template designed by JoomlaShine.com